DLH777 MKJS-MBPV

Flight info

Callsign DLH777
Flight time N/A
Altitude 34000
Route DCT ALBBE G504 PVN DCT
Aircraft A339/M-V/N

Departure

Time N/A
Airport Sangster International Airport (MKJS)

Arrival

Time 2026-04-24 19:27
Airport Providenciales International Airport (MBPV)
Time Latitude Longitude Altitude Speed Heading
2026-04-24 18:54 20.25005 -73.04149 33963 ft 552 kts 79°
2026-04-24 18:55 20.27542 -72.92201 33965 ft 551 kts 79°
2026-04-24 18:55 20.28381 -72.88243 33696 ft 545 kts 79°
2026-04-24 18:56 20.29203 -72.84369 33048 ft 541 kts 79°
2026-04-24 18:56 20.30020 -72.80505 32193 ft 538 kts 79°
2026-04-24 18:56 20.30836 -72.76644 31281 ft 534 kts 79°
2026-04-24 18:56 20.31646 -72.72809 30495 ft 527 kts 79°
2026-04-24 18:57 20.32444 -72.69024 29778 ft 518 kts 79°
2026-04-24 18:57 20.33224 -72.65314 28944 ft 511 kts 79°
2026-04-24 18:57 20.33995 -72.61643 28122 ft 504 kts 79°
2026-04-24 18:57 20.34757 -72.58011 27315 ft 498 kts 79°
2026-04-24 18:58 20.35507 -72.54434 26531 ft 491 kts 79°
2026-04-24 18:58 20.36245 -72.50909 25762 ft 486 kts 79°
2026-04-24 18:58 20.36975 -72.47421 25019 ft 479 kts 79°
2026-04-24 18:58 20.37686 -72.44019 24261 ft 474 kts 79°
2026-04-24 18:59 20.38395 -72.40620 23533 ft 468 kts 79°
2026-04-24 18:59 20.39098 -72.37252 22696 ft 461 kts 79°
2026-04-24 18:59 20.39788 -72.33942 21889 ft 454 kts 79°
2026-04-24 18:59 20.40466 -72.30685 21262 ft 445 kts 79°
2026-04-24 19:00 20.41118 -72.27464 21038 ft 447 kts 79°
2026-04-24 19:00 20.42033 -72.24283 20956 ft 449 kts 68°
2026-04-24 19:00 20.43530 -72.21389 20627 ft 444 kts 54°
2026-04-24 19:00 20.45564 -72.18960 20040 ft 438 kts 40°
2026-04-24 19:01 20.48003 -72.17149 19333 ft 429 kts 26°
2026-04-24 19:01 20.50747 -72.16025 18513 ft 418 kts 11°
2026-04-24 19:01 20.53600 -72.15695 17615 ft 406 kts 355°
2026-04-24 19:01 20.56345 -72.16135 16689 ft 395 kts 342°
2026-04-24 19:02 20.58129 -72.16640 16062 ft 391 kts 341°
2026-04-24 19:02 20.61586 -72.17567 15287 ft 387 kts 344°
2026-04-24 19:02 20.64244 -72.18113 15065 ft 389 kts 347°
2026-04-24 19:02 20.66923 -72.18547 14965 ft 389 kts 349°
2026-04-24 19:03 20.69592 -72.18918 14963 ft 389 kts 350°
2026-04-24 19:03 20.72277 -72.19266 14912 ft 386 kts 350°
2026-04-24 19:03 20.74930 -72.19604 14414 ft 384 kts 350°
2026-04-24 19:03 20.77540 -72.19939 13753 ft 380 kts 350°
2026-04-24 19:04 20.80171 -72.20279 12874 ft 374 kts 350°
2026-04-24 19:04 20.82703 -72.20607 11991 ft 368 kts 351°
2026-04-24 19:04 20.85222 -72.20936 11122 ft 362 kts 351°
2026-04-24 19:04 20.87691 -72.21259 10452 ft 353 kts 351°
2026-04-24 19:05 20.90160 -72.21583 10145 ft 357 kts 351°
2026-04-24 19:05 20.92554 -72.21896 9941 ft 337 kts 351°
2026-04-24 19:05 20.94798 -72.22185 9719 ft 313 kts 351°
2026-04-24 19:05 20.96895 -72.22456 9345 ft 295 kts 351°
2026-04-24 19:06 20.98881 -72.22716 9038 ft 277 kts 351°
2026-04-24 19:06 21.00716 -72.22956 8845 ft 256 kts 351°
2026-04-24 19:06 21.02402 -72.23175 8703 ft 239 kts 351°
2026-04-24 19:06 21.04004 -72.23384 8580 ft 225 kts 351°
2026-04-24 19:07 21.05541 -72.23586 8368 ft 220 kts 351°
2026-04-24 19:07 21.07052 -72.23787 8066 ft 219 kts 351°
2026-04-24 19:07 21.08055 -72.23920 7867 ft 219 kts 351°
2026-04-24 19:07 21.10075 -72.24188 7479 ft 218 kts 351°
2026-04-24 19:08 21.11582 -72.24388 7208 ft 218 kts 351°
2026-04-24 19:08 21.13072 -72.24584 7012 ft 213 kts 352°
2026-04-24 19:08 21.14508 -72.24773 6973 ft 211 kts 352°
2026-04-24 19:08 21.15972 -72.24966 6921 ft 212 kts 352°
2026-04-24 19:09 21.17426 -72.25158 6766 ft 208 kts 352°
2026-04-24 19:09 21.18825 -72.25341 6682 ft 197 kts 352°
2026-04-24 19:09 21.20155 -72.25515 6606 ft 188 kts 352°
2026-04-24 19:09 21.21445 -72.25684 6435 ft 186 kts 353°
2026-04-24 19:10 21.22729 -72.25853 6219 ft 186 kts 353°
2026-04-24 19:10 21.24013 -72.25955 5998 ft 185 kts 360°
2026-04-24 19:10 21.25299 -72.25960 5806 ft 184 kts
2026-04-24 19:10 21.26561 -72.25962 5610 ft 183 kts
2026-04-24 19:11 21.27852 -72.25970 5413 ft 182 kts
2026-04-24 19:11 21.29094 -72.25971 5207 ft 181 kts
2026-04-24 19:11 21.30311 -72.25668 5009 ft 179 kts 22°
2026-04-24 19:11 21.31452 -72.25147 4834 ft 177 kts 27°
2026-04-24 19:12 21.32572 -72.24592 4601 ft 179 kts 26°
2026-04-24 19:12 21.33731 -72.24056 4406 ft 180 kts 24°
2026-04-24 19:12 21.34865 -72.23579 4397 ft 174 kts 23°
2026-04-24 19:12 21.36020 -72.23117 4400 ft 176 kts 22°
2026-04-24 19:13 21.36778 -72.22823 4398 ft 175 kts 22°
2026-04-24 19:13 21.38301 -72.22237 4346 ft 174 kts 22°
2026-04-24 19:13 21.39434 -72.21802 4167 ft 173 kts 22°
2026-04-24 19:13 21.40561 -72.21365 3970 ft 173 kts 22°
2026-04-24 19:14 21.41698 -72.20923 3763 ft 173 kts 22°
2026-04-24 19:14 21.42823 -72.20485 3599 ft 171 kts 22°
2026-04-24 19:14 21.43937 -72.20052 3410 ft 170 kts 22°
2026-04-24 19:14 21.45057 -72.19616 3217 ft 169 kts 23°
2026-04-24 19:15 21.46164 -72.19182 3005 ft 170 kts 22°
2026-04-24 19:15 21.47232 -72.18765 2935 ft 159 kts 22°
2026-04-24 19:15 21.48257 -72.18371 2841 ft 150 kts 23°
2026-04-24 19:15 21.49218 -72.17998 2656 ft 149 kts 23°
2026-04-24 19:16 21.51157 -72.17237 2325 ft 146 kts 23°
2026-04-24 19:16 21.52115 -72.16861 2120 ft 146 kts 23°
2026-04-24 19:16 21.53063 -72.16492 1978 ft 146 kts 24°
2026-04-24 19:17 21.54035 -72.16110 1963 ft 147 kts 24°
2026-04-24 19:17 21.54988 -72.15737 1989 ft 149 kts 24°
2026-04-24 19:17 21.55924 -72.15371 1982 ft 144 kts 23°
2026-04-24 19:17 21.56889 -72.14995 1979 ft 145 kts 24°
2026-04-24 19:18 21.57849 -72.14618 1987 ft 152 kts 23°
2026-04-24 19:18 21.58812 -72.14237 1981 ft 145 kts 22°
2026-04-24 19:18 21.59760 -72.13866 1985 ft 147 kts 23°
2026-04-24 19:18 21.60720 -72.13495 1988 ft 147 kts 23°
2026-04-24 19:19 21.61675 -72.13121 1984 ft 138 kts 23°
2026-04-24 19:19 21.62542 -72.12780 2018 ft 139 kts 22°
2026-04-24 19:19 21.63456 -72.12424 1971 ft 130 kts 23°
2026-04-24 19:19 21.64345 -72.12078 1979 ft 139 kts 24°
2026-04-24 19:20 21.65248 -72.11726 1984 ft 135 kts 24°
2026-04-24 19:20 21.66142 -72.11377 1991 ft 140 kts 24°
2026-04-24 19:20 21.67012 -72.11035 1988 ft 133 kts 24°
2026-04-24 19:20 21.67892 -72.10687 1992 ft 136 kts 24°
2026-04-24 19:21 21.68761 -72.10347 2001 ft 139 kts 24°
2026-04-24 19:21 21.69659 -72.09993 1979 ft 131 kts 23°
2026-04-24 19:21 21.70549 -72.09645 1987 ft 137 kts 24°
2026-04-24 19:21 21.71434 -72.09298 1991 ft 136 kts 23°
2026-04-24 19:22 21.72026 -72.09066 1985 ft 137 kts 23°
2026-04-24 19:22 21.73213 -72.08602 1991 ft 139 kts 23°
2026-04-24 19:22 21.74119 -72.08304 1984 ft 138 kts 13°
2026-04-24 19:22 21.75084 -72.08373 2001 ft 143 kts 347°
2026-04-24 19:23 21.75904 -72.08876 1985 ft 137 kts 320°
2026-04-24 19:23 21.76490 -72.09765 1978 ft 146 kts 294°
2026-04-24 19:23 21.76660 -72.10835 1996 ft 150 kts 268°
2026-04-24 19:23 21.76645 -72.11925 1957 ft 138 kts 266°
2026-04-24 19:24 21.76639 -72.13027 1958 ft 151 kts 268°
2026-04-24 19:24 21.76645 -72.14108 1814 ft 142 kts 269°
2026-04-24 19:24 21.76696 -72.15212 1707 ft 147 kts 273°
2026-04-24 19:24 21.76805 -72.16279 1551 ft 142 kts 277°
2026-04-24 19:25 21.76911 -72.17368 1414 ft 143 kts 274°
2026-04-24 19:25 21.76965 -72.18432 1242 ft 148 kts 272°
2026-04-24 19:25 21.77018 -72.19521 1044 ft 144 kts 272°
2026-04-24 19:25 21.77033 -72.20594 797 ft 143 kts 271°
2026-04-24 19:26 21.77096 -72.21630 623 ft 134 kts 276°
2026-04-24 19:26 21.77192 -72.22676 556 ft 147 kts 275°
2026-04-24 19:26 21.77225 -72.23754 367 ft 139 kts 270°
2026-04-24 19:26 21.77264 -72.24793 174 ft 136 kts 274°
2026-04-24 19:27 21.77324 -72.25819 35 ft 135 kts 276°
2026-04-24 19:27 21.77371 -72.26626 30 ft 45 kts 268°
2026-04-24 19:27 21.77369 -72.26759 32 ft 17 kts 269°
2026-04-24 19:27 21.77368 -72.26900 34 ft 20 kts 269°
2026-04-24 19:28 21.77396 -72.27050 34 ft 21 kts 302°
2026-04-24 19:28 21.77471 -72.27078 35 ft 1 kts
2026-04-24 19:28 21.77485 -72.27084 35 ft 3 kts 338°
2026-04-24 19:28 21.77516 -72.27100 35 ft 7 kts 335°
2026-04-24 19:29 21.77569 -72.27100 35 ft 0 kts